This is the latest recevied weather packets stored in our database for station/object KC4GS-13. If no packets are shown the sender has not sent any weather packets the latest 10 day(s).
| Time | Temp. | Humidity | Pressure | Rain* | Wind** | Luminosity | Snow |
|---|---|---|---|---|---|---|---|
| 1778025179 | 25° C | 49% | 1014.2 hPa | 0 mm | - | 12 W/m² | - |
| 1778024875 | 25.56° C | 48% | 1014.5 hPa | 0 mm | - | 14 W/m² | - |
| 1778024574 | 25.56° C | 47% | 1014.3 hPa | 0 mm | - | 17 W/m² | - |
| 1778024270 | 25.56° C | 47% | 1014.3 hPa | 0 mm | - | 19 W/m² | - |
| 1778023968 | 25.56° C | 46% | 1014.3 hPa | 0 mm | - | 22 W/m² | - |
| 1778023665 | 25.56° C | 45% | 1014.4 hPa | 0 mm | - | 25 W/m² | - |
| 1778023362 | 26.11° C | 45% | 1014.7 hPa | 0 mm | - | 26 W/m² | - |
| 1778023058 | 26.11° C | 45% | 1014.2 hPa | 0 mm | - | 28 W/m² | - |
| 1778022758 | 26.11° C | 44% | 1014.6 hPa | 0 mm | - | 33 W/m² | - |
| 1778022455 | 26.67° C | 44% | 1014.5 hPa | 0 mm | - | 34 W/m² | - |
| 1778022152 | 26.67° C | 44% | 1014.4 hPa | 0 mm | - | 35 W/m² | - |
| 1778021848 | 26.67° C | 44% | 1014.2 hPa | 0 mm | - | 37 W/m² | - |
| 1778021546 | 26.67° C | 44% | 1014.7 hPa | 0 mm | - | 38 W/m² | - |
| 1778021241 | 27.22° C | 43% | 1014.7 hPa | 0 mm | - | 42 W/m² | - |
| 1778020939 | 27.78° C | 43% | 1014.7 hPa | 0 mm | - | 49 W/m² | - |
| 1778020636 | 27.78° C | 43% | 1014.8 hPa | 0 mm | - | 63 W/m² | - |
| 1778020332 | 28.33° C | 43% | 1014.8 hPa | 0 mm | - | 78 W/m² | - |
| 1778020028 | 28.33° C | 41% | 1015 hPa | 0 mm | - | 268 W/m² | - |
| 1778019724 | 28.33° C | 42% | 1014.7 hPa | 0 mm | - | 257 W/m² | - |
| 1778019422 | 28.89° C | 41% | 1014.8 hPa | 0 mm | - | 276 W/m² | - |
| 1778019118 | 28.89° C | 41% | 1014.6 hPa | 0 mm | - | 272 W/m² | - |
| 1778018815 | 29.44° C | 41% | 1014.7 hPa | 0 mm | - | 284 W/m² | - |
| 1778018513 | 28.89° C | 41% | 1014.8 hPa | 0 mm | - | 313 W/m² | - |
| 1778018210 | 28.89° C | 40% | 1014.6 hPa | 0 mm | - | 313 W/m² | - |
| 1778017908 | 28.89° C | 39% | 1015 hPa | 0 mm | - | 386 W/m² | - |
* Rain latest hour (hover to see other rain measurements)
** Current wind speed in m/s (hover to see current wind gust speed)